NWS703 USPP-UUEE

Flight info

Callsign NWS703
Flight time N/A
Altitude 34000
Route GEBSI1M GEBSI M60 BAPTA P874 BAPUN N181 GOBOM T187 ROMTA ROMTA3E
Aircraft A321/M-SDE3FGHIRWY/LB1

Departure

Time 2026-04-15 12:22
Airport Perm International Airport (USPP)

Arrival

Time N/A
Airport Sheremetyevo International Airport (UUEE)
Time Latitude Longitude Altitude Speed Heading
2026-04-15 11:40 57.91935 56.02148 398 ft 0 kts 316°
2026-04-15 12:11 57.91919 56.02172 397 ft 4 kts 336°
2026-04-15 12:12 57.91903 56.02191 391 ft 3 kts 293°
2026-04-15 12:12 57.91898 56.02223 398 ft 4 kts 233°
2026-04-15 12:12 57.91913 56.02254 393 ft 4 kts 223°
2026-04-15 12:12 57.91920 56.02267 394 ft 0 kts 226°
2026-04-15 12:15 57.91920 56.02266 394 ft 0 kts 226°
2026-04-15 12:15 57.91910 56.02247 396 ft 4 kts 226°
2026-04-15 12:15 57.91881 56.02195 393 ft 7 kts 219°
2026-04-15 12:15 57.91828 56.02211 393 ft 10 kts 147°
2026-04-15 12:16 57.91792 56.02273 398 ft 12 kts 135°
2026-04-15 12:16 57.91726 56.02390 393 ft 14 kts 136°
2026-04-15 12:16 57.91644 56.02482 398 ft 13 kts 188°
2026-04-15 12:16 57.91546 56.02314 398 ft 17 kts 226°
2026-04-15 12:17 57.91459 56.02145 396 ft 19 kts 226°
2026-04-15 12:17 57.91360 56.01957 394 ft 21 kts 226°
2026-04-15 12:17 57.91256 56.01753 400 ft 22 kts 226°
2026-04-15 12:17 57.91180 56.01609 400 ft 24 kts 225°
2026-04-15 12:18 57.91061 56.01379 391 ft 26 kts 226°
2026-04-15 12:18 57.90935 56.01134 396 ft 26 kts 226°
2026-04-15 12:18 57.90810 56.00892 400 ft 25 kts 226°
2026-04-15 12:18 57.90687 56.00654 400 ft 26 kts 225°
2026-04-15 12:19 57.90563 56.00415 395 ft 21 kts 226°
2026-04-15 12:19 57.90504 56.00193 396 ft 13 kts 229°
2026-04-15 12:19 57.90471 56.00196 398 ft 3 kts 117°
2026-04-15 12:19 57.90473 56.00240 396 ft 5 kts 67°
2026-04-15 12:20 57.90500 56.00292 398 ft 0 kts 45°
2026-04-15 12:21 57.90523 56.00337 398 ft 27 kts 46°
2026-04-15 12:21 57.90823 56.00921 401 ft 95 kts 46°
2026-04-15 12:22 57.91425 56.02089 392 ft 151 kts 46°
2026-04-15 12:22 57.92211 56.03646 745 ft 167 kts 47°
2026-04-15 12:22 57.92992 56.05204 1582 ft 162 kts 46°
2026-04-15 12:22 57.93797 56.06780 1949 ft 179 kts 45°
2026-04-15 12:23 57.94726 56.08561 2178 ft 202 kts 45°
2026-04-15 12:23 57.95913 56.10102 2635 ft 220 kts 15°
2026-04-15 12:23 57.97499 56.09899 3026 ft 245 kts 336°
2026-04-15 12:23 57.98762 56.07686 3690 ft 259 kts 300°
2026-04-15 12:24 57.99380 56.04459 4440 ft 264 kts 292°
2026-04-15 12:24 58.00336 56.01541 5200 ft 263 kts 317°
2026-04-15 12:24 58.01732 55.99324 5986 ft 263 kts 328°
2026-04-15 12:24 58.03271 55.97421 6725 ft 266 kts 331°
2026-04-15 12:25 58.04858 55.95585 7422 ft 269 kts 331°
2026-04-15 12:25 58.06449 55.93713 8158 ft 271 kts 330°
2026-04-15 12:25 58.08038 55.91768 8905 ft 273 kts 329°
2026-04-15 12:25 58.09625 55.89761 9666 ft 275 kts 328°
2026-04-15 12:26 58.11207 55.87712 10394 ft 277 kts 328°
2026-04-15 12:26 58.12809 55.85526 10738 ft 295 kts 322°
2026-04-15 12:26 58.14249 55.82540 10872 ft 321 kts 307°
2026-04-15 12:26 58.15279 55.78687 11106 ft 342 kts 292°
2026-04-15 12:27 58.16062 55.74383 11650 ft 347 kts 292°
2026-04-15 12:27 58.16868 55.70051 12261 ft 350 kts 293°
2026-04-15 12:27 58.17690 55.65680 12886 ft 353 kts 293°
2026-04-15 12:27 58.18518 55.61283 13528 ft 356 kts 293°
2026-04-15 12:28 58.19354 55.56841 14178 ft 359 kts 293°
2026-04-15 12:28 58.20196 55.52365 14748 ft 362 kts 293°
2026-04-15 12:28 58.21042 55.47847 15320 ft 365 kts 293°
2026-04-15 12:28 58.21891 55.43297 15907 ft 367 kts 293°
2026-04-15 12:29 58.22745 55.38713 16484 ft 370 kts 293°
2026-04-15 12:29 58.23602 55.34092 17055 ft 373 kts 293°
2026-04-15 12:29 58.24464 55.29426 17626 ft 376 kts 293°
2026-04-15 12:29 58.25333 55.24709 18197 ft 379 kts 293°